LAN416 SCEL-SAZN

Flight info

Callsign LAN416
Flight time 1h 0m
Altitude 31000
Route LINER6C LINER UM783 ANKON UZ122 UGAGI UGAGI1Q
Aircraft A320/M-SDE3FGHIRWY/LB1

Departure

Time 2026-04-25 03:26
Airport Comodoro Arturo Merino Benítez International Airport (SCEL)

Arrival

Time 2026-04-25 04:26
Airport Presidente Perón International Airport (SAZN)
Time Latitude Longitude Altitude Speed Heading
2026-04-25 02:29 -33.39903 -70.79081 1564 ft 0 kts 178°
2026-04-25 03:14 -33.39896 -70.79081 1564 ft 4 kts 177°
2026-04-25 03:14 -33.39869 -70.79084 1564 ft 4 kts 166°
2026-04-25 03:14 -33.39845 -70.79096 1564 ft 4 kts 129°
2026-04-25 03:15 -33.39839 -70.79110 1564 ft 0 kts 88°
2026-04-25 03:19 -33.39839 -70.79100 1564 ft 5 kts 87°
2026-04-25 03:19 -33.39835 -70.79004 1564 ft 18 kts 87°
2026-04-25 03:19 -33.39786 -70.78879 1564 ft 17 kts 24°
2026-04-25 03:19 -33.39714 -70.78779 1564 ft 16 kts 20°
2026-04-25 03:20 -33.39603 -70.78779 1564 ft 15 kts 357°
2026-04-25 03:20 -33.39502 -70.78785 1564 ft 14 kts 357°
2026-04-25 03:20 -33.39414 -70.78790 1564 ft 12 kts 357°
2026-04-25 03:20 -33.39338 -70.78795 1564 ft 10 kts 357°
2026-04-25 03:21 -33.39274 -70.78798 1564 ft 8 kts 357°
2026-04-25 03:21 -33.39221 -70.78801 1564 ft 7 kts 357°
2026-04-25 03:21 -33.39178 -70.78804 1564 ft 6 kts 357°
2026-04-25 03:21 -33.39114 -70.78807 1564 ft 13 kts 357°
2026-04-25 03:22 -33.38994 -70.78814 1564 ft 21 kts 357°
2026-04-25 03:22 -33.38827 -70.78824 1564 ft 25 kts 357°
2026-04-25 03:22 -33.38654 -70.78831 1564 ft 23 kts 358°
2026-04-25 03:22 -33.38492 -70.78838 1564 ft 24 kts 359°
2026-04-25 03:23 -33.38325 -70.78845 1564 ft 23 kts 354°
2026-04-25 03:23 -33.38183 -70.78857 1564 ft 21 kts 357°
2026-04-25 03:23 -33.38032 -70.78863 1564 ft 22 kts 355°
2026-04-25 03:23 -33.37874 -70.78876 1565 ft 23 kts 356°
2026-04-25 03:24 -33.37708 -70.78884 1564 ft 25 kts 359°
2026-04-25 03:24 -33.37573 -70.78874 1564 ft 17 kts 36°
2026-04-25 03:24 -33.37539 -70.78744 1564 ft 18 kts 93°
2026-04-25 03:24 -33.37629 -70.78668 1564 ft 17 kts 178°
2026-04-25 03:25 -33.37649 -70.78668 1565 ft 0 kts 178°
2026-04-25 03:25 -33.37707 -70.78665 1565 ft 35 kts 178°
2026-04-25 03:25 -33.38206 -70.78636 1564 ft 105 kts 177°
2026-04-25 03:25 -33.39127 -70.78588 1564 ft 158 kts 178°
2026-04-25 03:26 -33.40285 -70.78532 2035 ft 164 kts 177°
2026-04-25 03:26 -33.41412 -70.78508 2780 ft 160 kts 179°
2026-04-25 03:26 -33.42563 -70.78456 3269 ft 175 kts 176°
2026-04-25 03:26 -33.43855 -70.78364 3533 ft 197 kts 176°
2026-04-25 03:27 -33.45313 -70.78258 3775 ft 222 kts 176°
2026-04-25 03:27 -33.46937 -70.78145 4126 ft 246 kts 176°
2026-04-25 03:27 -33.48713 -70.78025 4654 ft 263 kts 176°
2026-04-25 03:27 -33.50562 -70.77906 5447 ft 269 kts 176°
2026-04-25 03:28 -33.52445 -70.77788 6289 ft 273 kts 177°
2026-04-25 03:28 -33.54357 -70.77672 7097 ft 277 kts 177°
2026-04-25 03:28 -33.56302 -70.77551 7873 ft 282 kts 177°
2026-04-25 03:28 -33.58276 -70.77427 8657 ft 287 kts 177°
2026-04-25 03:29 -33.60286 -70.77298 9454 ft 291 kts 177°
2026-04-25 03:29 -33.62321 -70.77166 10226 ft 296 kts 177°
2026-04-25 03:29 -33.64426 -70.77029 10509 ft 318 kts 178°
2026-04-25 03:29 -33.66747 -70.76881 10770 ft 339 kts 178°
2026-04-25 03:30 -33.69134 -70.76728 11355 ft 347 kts 178°
2026-04-25 03:30 -33.71562 -70.76574 12050 ft 352 kts 178°
2026-04-25 03:30 -33.73990 -70.76422 12737 ft 356 kts 178°
2026-04-25 03:30 -33.76475 -70.76264 13458 ft 360 kts 178°
2026-04-25 03:31 -33.78986 -70.76102 14136 ft 364 kts 179°
2026-04-25 03:31 -33.81524 -70.75940 14769 ft 367 kts 179°
2026-04-25 03:31 -33.84078 -70.75777 15420 ft 369 kts 179°
2026-04-25 03:31 -33.86649 -70.75611 16069 ft 371 kts 180°
2026-04-25 03:32 -33.89242 -70.75442 16703 ft 374 kts 180°
2026-04-25 03:32 -33.91845 -70.75271 17340 ft 376 kts 180°
2026-04-25 03:32 -33.94462 -70.74862 17967 ft 381 kts 174°
2026-04-25 03:32 -33.97087 -70.74346 18563 ft 384 kts 175°
2026-04-25 03:33 -33.99730 -70.73826 19085 ft 386 kts 175°
2026-04-25 03:33 -34.02397 -70.73304 19624 ft 389 kts 175°
2026-04-25 03:33 -34.05089 -70.72780 20172 ft 392 kts 176°
2026-04-25 03:33 -34.07784 -70.72253 20718 ft 395 kts 176°
2026-04-25 03:34 -34.10507 -70.71721 21261 ft 397 kts 177°
2026-04-25 03:34 -34.13244 -70.71187 21796 ft 400 kts 177°
2026-04-25 03:34 -34.15999 -70.70647 22336 ft 402 kts 178°
2026-04-25 03:34 -34.18776 -70.70101 22855 ft 405 kts 178°
2026-04-25 03:35 -34.21572 -70.69551 23371 ft 408 kts 178°
2026-04-25 03:35 -34.24377 -70.69002 23860 ft 410 kts 179°
2026-04-25 03:35 -34.27166 -70.68457 24260 ft 412 kts 179°
2026-04-25 03:35 -34.30039 -70.67896 24664 ft 414 kts 179°
2026-04-25 03:36 -34.32853 -70.67349 25050 ft 415 kts 179°
2026-04-25 03:36 -34.35711 -70.66792 25434 ft 418 kts 179°
2026-04-25 03:36 -34.38589 -70.66229 25826 ft 420 kts 179°
2026-04-25 03:36 -34.41478 -70.65659 26194 ft 422 kts 179°
2026-04-25 03:37 -34.44380 -70.65081 26546 ft 424 kts 179°
2026-04-25 03:37 -34.47296 -70.64499 26928 ft 426 kts 180°
2026-04-25 03:37 -34.50224 -70.63916 27304 ft 427 kts 180°
2026-04-25 03:37 -34.53164 -70.63332 27691 ft 430 kts 180°
2026-04-25 03:38 -34.56125 -70.62747 28018 ft 431 kts 180°
2026-04-25 03:38 -34.59093 -70.62163 28372 ft 433 kts 180°
2026-04-25 03:38 -34.62069 -70.61576 28642 ft 435 kts 180°
2026-04-25 03:38 -34.65068 -70.60982 28930 ft 437 kts 180°
2026-04-25 03:39 -34.68074 -70.60384 29296 ft 438 kts 180°
2026-04-25 03:39 -34.71086 -70.59783 29653 ft 440 kts 181°
2026-04-25 03:39 -34.74117 -70.59182 29958 ft 442 kts 181°
2026-04-25 03:39 -34.77162 -70.58579 30233 ft 443 kts 181°
2026-04-25 03:40 -34.79177 -70.58178 30386 ft 445 kts 181°
2026-04-25 03:40 -34.83275 -70.57358 30675 ft 447 kts 180°
2026-04-25 03:40 -34.86352 -70.56743 30839 ft 449 kts 181°
2026-04-25 03:40 -34.89393 -70.56135 31043 ft 449 kts 181°
2026-04-25 03:41 -34.92523 -70.55509 31264 ft 450 kts 181°
2026-04-25 03:41 -34.95574 -70.54899 31579 ft 449 kts 181°
2026-04-25 03:41 -34.98656 -70.54281 31913 ft 448 kts 181°
2026-04-25 03:41 -35.00739 -70.53864 32160 ft 448 kts 181°
2026-04-25 03:42 -35.03810 -70.53248 32506 ft 446 kts 181°
2026-04-25 03:42 -35.06870 -70.52632 32786 ft 445 kts 181°
2026-04-25 03:42 -35.09932 -70.52015 32928 ft 446 kts 181°
2026-04-25 03:42 -35.12959 -70.51409 33162 ft 446 kts 181°
2026-04-25 03:43 -35.16013 -70.50800 33500 ft 444 kts 181°
2026-04-25 03:43 -35.19069 -70.50137 33738 ft 449 kts 177°
2026-04-25 03:43 -35.22085 -70.48970 34075 ft 462 kts 168°
2026-04-25 03:43 -35.25056 -70.47468 34384 ft 462 kts 168°
2026-04-25 03:44 -35.28020 -70.45959 34639 ft 461 kts 168°
2026-04-25 03:44 -35.30991 -70.44444 34829 ft 462 kts 168°
2026-04-25 03:44 -35.33960 -70.42930 35010 ft 462 kts 168°
2026-04-25 03:44 -35.36937 -70.41417 35176 ft 463 kts 168°
2026-04-25 03:45 -35.42865 -70.38405 35229 ft 459 kts 168°
2026-04-25 03:45 -35.48773 -70.35405 35232 ft 459 kts 168°
2026-04-25 03:46 -35.54677 -70.32411 35221 ft 459 kts 168°
2026-04-25 03:46 -35.60584 -70.29402 35221 ft 460 kts 168°
2026-04-25 03:47 -35.66488 -70.26379 35219 ft 460 kts 168°
2026-04-25 03:47 -35.72394 -70.23360 35221 ft 459 kts 168°
2026-04-25 03:48 -35.78299 -70.20339 35219 ft 460 kts 168°
2026-04-25 03:48 -35.84201 -70.17307 35221 ft 459 kts 168°
2026-04-25 03:49 -35.90065 -70.14282 35211 ft 459 kts 168°
2026-04-25 03:49 -35.95956 -70.11243 35209 ft 459 kts 168°
2026-04-25 03:50 -36.01855 -70.08211 35202 ft 459 kts 168°
2026-04-25 03:50 -36.07742 -70.05176 35190 ft 459 kts 168°
2026-04-25 03:51 -36.13629 -70.02117 35195 ft 459 kts 168°
2026-04-25 03:51 -36.19524 -69.99060 35208 ft 460 kts 168°
2026-04-25 03:52 -36.25426 -69.95995 35210 ft 460 kts 168°
2026-04-25 03:52 -36.31336 -69.92918 35204 ft 460 kts 168°
2026-04-25 03:53 -36.37241 -69.89837 35207 ft 460 kts 168°
2026-04-25 03:53 -36.43154 -69.86750 35209 ft 461 kts 168°
2026-04-25 03:54 -36.49067 -69.83660 35204 ft 461 kts 168°
2026-04-25 03:54 -36.54944 -69.80586 35202 ft 461 kts 168°
2026-04-25 03:55 -36.60857 -69.77489 35198 ft 461 kts 168°
2026-04-25 03:55 -36.66768 -69.74384 35192 ft 461 kts 168°
2026-04-25 03:56 -36.72690 -69.71261 35199 ft 462 kts 168°
2026-04-25 03:56 -36.78607 -69.68139 35198 ft 462 kts 168°
2026-04-25 03:57 -36.84529 -69.65018 35201 ft 462 kts 168°
2026-04-25 03:57 -36.90450 -69.61885 35203 ft 463 kts 168°
2026-04-25 03:58 -36.96384 -69.58740 35208 ft 464 kts 168°
2026-04-25 03:58 -37.02325 -69.55591 35209 ft 463 kts 168°
2026-04-25 03:59 -37.08224 -69.52458 35208 ft 464 kts 168°
2026-04-25 03:59 -37.14203 -69.49272 35213 ft 464 kts 168°
2026-04-25 04:00 -37.20120 -69.46113 35215 ft 465 kts 168°
2026-04-25 04:00 -37.26067 -69.42940 35222 ft 465 kts 168°
2026-04-25 04:01 -37.32023 -69.39766 35221 ft 465 kts 167°
2026-04-25 04:01 -37.37975 -69.36577 35226 ft 465 kts 167°
2026-04-25 04:02 -37.43940 -69.33370 35215 ft 465 kts 167°
2026-04-25 04:02 -37.46915 -69.31769 35028 ft 465 kts 167°
2026-04-25 04:02 -37.49885 -69.30171 35216 ft 465 kts 167°
2026-04-25 04:03 -37.55795 -69.26989 35214 ft 465 kts 167°
2026-04-25 04:03 -37.61736 -69.23790 35217 ft 464 kts 166°
2026-04-25 04:04 -37.67680 -69.20568 35215 ft 464 kts 166°
2026-04-25 04:04 -37.73611 -69.17352 35211 ft 464 kts 166°
2026-04-25 04:05 -37.79551 -69.14132 35199 ft 465 kts 166°
2026-04-25 04:05 -37.85506 -69.10898 34038 ft 468 kts 165°
2026-04-25 04:06 -37.88529 -69.09262 32421 ft 472 kts 164°
2026-04-25 04:06 -37.91536 -69.07626 31364 ft 465 kts 163°
2026-04-25 04:06 -37.94435 -69.06028 30875 ft 445 kts 163°
2026-04-25 04:06 -37.97253 -69.04471 30300 ft 440 kts 163°
2026-04-25 04:07 -38.00051 -69.02934 29666 ft 437 kts 163°
2026-04-25 04:07 -38.02827 -69.01416 29122 ft 432 kts 163°
2026-04-25 04:07 -38.05573 -68.99916 28567 ft 428 kts 163°
2026-04-25 04:07 -38.08293 -68.98431 28023 ft 423 kts 163°
2026-04-25 04:08 -38.10986 -68.96962 27483 ft 419 kts 162°
2026-04-25 04:08 -38.13652 -68.95504 26969 ft 415 kts 162°
2026-04-25 04:08 -38.16296 -68.94053 26449 ft 412 kts 162°
2026-04-25 04:08 -38.18910 -68.92614 25964 ft 408 kts 162°
2026-04-25 04:09 -38.21503 -68.91186 25477 ft 404 kts 162°
2026-04-25 04:09 -38.24039 -68.89791 25007 ft 401 kts 162°
2026-04-25 04:09 -38.26592 -68.88386 24529 ft 398 kts 162°
2026-04-25 04:09 -38.29130 -68.86988 24055 ft 396 kts 162°
2026-04-25 04:10 -38.31649 -68.85599 23554 ft 393 kts 162°
2026-04-25 04:10 -38.34150 -68.84215 23066 ft 390 kts 162°
2026-04-25 04:10 -38.36626 -68.82843 22595 ft 386 kts 162°
2026-04-25 04:10 -38.39080 -68.81484 22128 ft 383 kts 162°
2026-04-25 04:11 -38.43935 -68.78800 21194 ft 378 kts 162°
2026-04-25 04:11 -38.46341 -68.77472 20711 ft 376 kts 162°
2026-04-25 04:11 -38.48733 -68.76148 20239 ft 374 kts 162°
2026-04-25 04:12 -38.51120 -68.74823 19763 ft 373 kts 162°
2026-04-25 04:12 -38.53496 -68.73498 19283 ft 372 kts 162°
2026-04-25 04:12 -38.55866 -68.72175 18804 ft 371 kts 162°
2026-04-25 04:12 -38.58234 -68.70860 18311 ft 371 kts 162°
2026-04-25 04:13 -38.60596 -68.69552 17817 ft 369 kts 162°
2026-04-25 04:13 -38.62855 -68.67968 17345 ft 374 kts 148°
2026-04-25 04:13 -38.64773 -68.65706 16881 ft 378 kts 133°
2026-04-25 04:13 -38.66218 -68.62880 16410 ft 382 kts 118°
2026-04-25 04:14 -38.67155 -68.59693 15929 ft 383 kts 110°
2026-04-25 04:14 -38.68004 -68.56461 15453 ft 383 kts 110°
2026-04-25 04:14 -38.68856 -68.53236 14969 ft 382 kts 110°
2026-04-25 04:14 -38.69706 -68.50020 14505 ft 382 kts 110°
2026-04-25 04:15 -38.70558 -68.46800 14005 ft 381 kts 110°
2026-04-25 04:15 -38.71406 -68.43584 13481 ft 380 kts 110°
2026-04-25 04:15 -38.72247 -68.40382 12984 ft 378 kts 110°
2026-04-25 04:15 -38.73082 -68.37197 12491 ft 376 kts 110°
2026-04-25 04:16 -38.73906 -68.34053 11990 ft 367 kts 110°
2026-04-25 04:16 -38.74706 -68.31001 11511 ft 357 kts 110°
2026-04-25 04:16 -38.75485 -68.28027 11040 ft 348 kts 110°
2026-04-25 04:16 -38.76248 -68.25117 10495 ft 342 kts 110°
2026-04-25 04:17 -38.76992 -68.22268 10197 ft 331 kts 110°
2026-04-25 04:17 -38.77708 -68.19520 10039 ft 320 kts 110°
2026-04-25 04:17 -38.78409 -68.16836 9734 ft 316 kts 110°
2026-04-25 04:17 -38.79104 -68.14169 9285 ft 316 kts 110°
2026-04-25 04:18 -38.79794 -68.11511 8859 ft 315 kts 110°
2026-04-25 04:18 -38.80483 -68.08855 8526 ft 311 kts 111°
2026-04-25 04:18 -38.81162 -68.06236 8125 ft 307 kts 111°
2026-04-25 04:18 -38.81832 -68.03649 7487 ft 304 kts 111°
2026-04-25 04:19 -38.82494 -68.01089 6840 ft 301 kts 111°
2026-04-25 04:19 -38.83146 -67.98565 6338 ft 292 kts 112°
2026-04-25 04:19 -38.83759 -67.96184 6187 ft 270 kts 114°
2026-04-25 04:19 -38.84632 -67.94167 5794 ft 250 kts 139°
2026-04-25 04:20 -38.85948 -67.92852 5668 ft 236 kts 160°
2026-04-25 04:20 -38.87499 -67.92227 5201 ft 234 kts 181°
2026-04-25 04:20 -38.89097 -67.92212 4824 ft 231 kts 186°
2026-04-25 04:20 -38.90708 -67.92224 4501 ft 229 kts 185°
2026-04-25 04:21 -38.92252 -67.92226 4345 ft 219 kts 185°
2026-04-25 04:21 -38.93688 -67.92457 4227 ft 192 kts 208°
2026-04-25 04:21 -38.94632 -67.93484 4116 ft 180 kts 239°
2026-04-25 04:21 -38.94952 -67.94982 3878 ft 172 kts 266°
2026-04-25 04:22 -38.94941 -67.96471 3614 ft 162 kts 266°
2026-04-25 04:22 -38.94934 -67.97870 3380 ft 150 kts 265°
2026-04-25 04:22 -38.94928 -67.99154 3191 ft 140 kts 264°
2026-04-25 04:22 -38.94928 -68.00386 2996 ft 136 kts 264°
2026-04-25 04:23 -38.94928 -68.01603 2802 ft 136 kts 264°
2026-04-25 04:23 -38.94928 -68.02809 2614 ft 135 kts 264°
2026-04-25 04:23 -38.94925 -68.04011 2436 ft 134 kts 264°
2026-04-25 04:23 -38.94917 -68.05208 2217 ft 133 kts 264°
2026-04-25 04:24 -38.94914 -68.06395 2044 ft 133 kts 264°
2026-04-25 04:24 -38.94910 -68.07586 1880 ft 134 kts 266°
2026-04-25 04:24 -38.94899 -68.08800 1652 ft 135 kts 268°
2026-04-25 04:24 -38.94902 -68.10004 1552 ft 135 kts 269°
2026-04-25 04:25 -38.94908 -68.11205 1398 ft 134 kts 268°
2026-04-25 04:25 -38.94913 -68.12399 1216 ft 135 kts 269°
2026-04-25 04:25 -38.94902 -68.13602 1001 ft 133 kts 269°
2026-04-25 04:25 -38.94897 -68.14774 916 ft 125 kts 270°
2026-04-25 04:26 -38.94901 -68.15717 905 ft 72 kts 271°
2026-04-25 04:26 -38.94899 -68.15982 906 ft 1 kts 270°
2026-04-25 04:26 -38.94899 -68.16003 906 ft 8 kts 270°
2026-04-25 04:26 -38.94899 -68.16205 904 ft 23 kts 269°
2026-04-25 04:27 -38.94902 -68.16341 903 ft 23 kts 270°
2026-04-25 04:27 -38.94894 -68.16573 902 ft 20 kts 273°
2026-04-25 04:27 -38.94889 -68.16756 901 ft 21 kts 269°
2026-04-25 04:27 -38.94910 -68.16925 904 ft 16 kts 230°
2026-04-25 04:28 -38.94897 -68.17003 903 ft 11 kts 37°
2026-04-25 04:28 -38.94892 -68.16939 902 ft 11 kts 94°
2026-04-25 04:28 -38.94897 -68.16842 901 ft 11 kts 94°
2026-04-25 04:28 -38.94899 -68.16748 901 ft 10 kts 90°
2026-04-25 04:29 -38.94898 -68.16658 901 ft 9 kts 89°
2026-04-25 04:29 -38.94897 -68.16580 902 ft 9 kts 90°
2026-04-25 04:29 -38.94897 -68.16503 903 ft 9 kts 90°
2026-04-25 04:29 -38.94898 -68.16422 903 ft 10 kts 90°
2026-04-25 04:30 -38.94899 -68.16326 909 ft 12 kts 91°
2026-04-25 04:30 -38.94900 -68.16206 904 ft 14 kts 90°
2026-04-25 04:30 -38.94901 -68.16069 906 ft 16 kts 91°
2026-04-25 04:30 -38.94902 -68.15914 906 ft 19 kts 88°
2026-04-25 04:31 -38.94903 -68.15730 905 ft 22 kts 90°
2026-04-25 04:31 -38.94901 -68.15527 905 ft 24 kts 90°
2026-04-25 04:31 -38.94901 -68.15319 902 ft 24 kts 90°
2026-04-25 04:31 -38.94919 -68.15121 902 ft 20 kts 110°
2026-04-25 04:32 -38.95005 -68.14999 903 ft 17 kts 137°
2026-04-25 04:32 -38.95083 -68.14885 903 ft 17 kts 111°
2026-04-25 04:32 -38.95092 -68.14743 904 ft 16 kts 89°
2026-04-25 04:32 -38.95091 -68.14606 904 ft 15 kts 90°
2026-04-25 04:33 -38.95091 -68.14481 904 ft 14 kts 90°
2026-04-25 04:33 -38.95093 -68.14364 904 ft 13 kts 91°
2026-04-25 04:33 -38.95095 -68.14257 904 ft 12 kts 90°
2026-04-25 04:33 -38.95095 -68.14156 904 ft 11 kts 90°
2026-04-25 04:34 -38.95110 -68.14075 906 ft 8 kts 146°
2026-04-25 04:34 -38.95151 -68.14069 904 ft 3 kts 179°
2026-04-25 04:34 -38.95157 -68.14069 904 ft 0 kts 177°